Weather History for Lake Charles, LA

Change the Weather History Date:

Thursday, August 8, 2013

  Actual Average Record
Temperature  
Mean Temperature 84 °F -  
Max Temperature 97 °F 89 °F 98 °F (2002)
Min Temperature 73 °F 75 °F 68 °F (2005)
Cooling Degree Days 20    
Growing Degree Days 34 (Base 50)    
Moisture  
Dew Point 73 °F    
Average Humidity 79    
Maximum Humidity 100    
Minimum Humidity 34    
Precipitation  
Precipitation 0.00 in - - ()
Sea Level Pressure  
Sea Level Pressure 29.92 in    
Wind  
Wind Speed 3 mph (South)    
Max Wind Speed 12 mph    
Max Gust Speed 16 mph    
Visibility 6 miles    
Events Fog    
Averages and records for this station are not official NWS values.
T = Trace of Precipitation, MM = Missing Value Source: NWS Daily Summary

Daily Weather History Graph

Daily Weather History Graph

Search for Another Location

Airport:

Trip Planner

Search our weather history database for the weather conditions in past years. The results will help you decide how hot, cold, wet, or windy it might be!

Date:

Astronomy

Aug. 08, 2013 Rise Set
Actual Time 6:35 AM CDT 8:00 PM CDT
Civil Twilight 6:10 AM CDT 8:25 PM CDT
Nautical Twilight 5:39 AM CDT 8:56 PM CDT
Astronomical Twilight 5:07 AM CDT 9:27 PM CDT
Moon 8:11 AM CDT (8/8) 8:53 PM CDT (8/8)
Length of Visible Light 14h 15m
Length of Day
13h 24m
Waxing Crescent, 3% of the Moon is Illuminated
Aug 8
Waxing Crescent
Aug 14
First Quarter
Aug 20
Full
Aug 28
Last Quarter
Sep 5
New

Hourly Weather History & Observations

Time (CDT) Temp. Heat Index Dew Point Humidity Pressure Visibility Wind Dir Wind Speed Gust Speed Precip Events Conditions
12:15 AM 76.8 °F - 74.5 °F 92% 29.94 in 5.0 mi Calm Calm - N/A   Clear
12:35 AM 79.5 °F - 75.7 °F 88% 29.93 in 7.0 mi SW 3.5 mph - N/A   Clear
12:55 AM 79.9 °F - 75.4 °F 86% 29.93 in 7.0 mi SSW 3.5 mph - N/A   Clear
1:15 AM 80.6 °F 86.2 °F 75.2 °F 84% 29.92 in 7.0 mi SW 3.5 mph - N/A   Clear
1:35 AM 80.6 °F 86.2 °F 75.4 °F 84% 29.93 in 7.0 mi SSW 3.5 mph - N/A   Clear
1:55 AM 75.2 °F - 73.2 °F 94% 29.93 in 5.0 mi SSW 3.5 mph - N/A   Clear
2:15 AM 79.9 °F - 76.1 °F 88% 29.92 in 7.0 mi SW 3.5 mph - N/A   Clear
2:35 AM 80.6 °F 86.4 °F 75.6 °F 85% 29.92 in 7.0 mi SW 3.5 mph - N/A   Clear
2:55 AM 80.6 °F 86.4 °F 75.6 °F 85% 29.91 in 7.0 mi Calm Calm - N/A   Clear
3:15 AM 80.2 °F 85.8 °F 76.1 °F 87% 29.91 in 7.0 mi SW 3.5 mph - N/A   Clear
3:35 AM 75.4 °F - 73.4 °F 94% 29.90 in 5.0 mi Calm Calm - N/A   Clear
3:55 AM 74.5 °F - 73.2 °F 96% 29.91 in 4.0 mi SSE 3.5 mph - N/A   Clear
4:15 AM 74.8 °F - 73.9 °F 97% 29.91 in 5.0 mi Calm Calm - N/A   Clear
4:35 AM 75.0 °F - 74.1 °F 97% 29.91 in 3.0 mi ESE 4.6 mph - N/A   Mist
4:55 AM 74.5 °F - 73.6 °F 97% 29.91 in 2.5 mi ESE 4.6 mph - N/A   Mist
5:15 AM 74.3 °F - 73.6 °F 98% 29.91 in 1.8 mi ESE 3.5 mph - N/A   Mist
5:35 AM 73.4 °F - 72.7 °F 98% 29.91 in 2.0 mi East 3.5 mph - N/A   Mist
5:55 AM 73.4 °F - 72.5 °F 97% 29.92 in 0.2 mi East 4.6 mph - N/A Fog Fog
6:00 AM 73.4 °F - 73.4 °F 100% 29.92 in 3.0 mi East 5.8 mph - N/A   Clear
6:15 AM 73.0 °F - 72.3 °F 98% 29.92 in 1.5 mi East 3.5 mph - N/A   Mist
6:35 AM 73.4 °F - 72.9 °F 98% 29.93 in 0.5 mi ENE 3.5 mph - N/A Fog Fog
6:53 AM 73.4 °F - 73.4 °F 100% 29.94 in 3.0 mi Calm Calm - N/A   Scattered Clouds
6:55 AM 74.3 °F - 73.8 °F 98% 29.94 in 3.0 mi ENE 3.5 mph - N/A   Mist
7:53 AM 75.2 °F - 75.2 °F 100% 29.94 in 5.0 mi Calm Calm - N/A   Mostly Cloudy
8:24 AM 78.8 °F - 78.8 °F 100% 29.95 in 6.0 mi Calm Calm - N/A   Clear
8:58 AM 84.2 °F 92.3 °F 75.2 °F 74% 29.95 in 7.0 mi Calm Calm - N/A   Scattered Clouds
9:45 AM 84.2 °F 90.9 °F 73.4 °F 70% 29.95 in 7.0 mi WSW 3.5 mph - N/A   Scattered Clouds
10:50 AM 89.6 °F 96.2 °F 71.6 °F 55% 29.97 in 7.0 mi WSW 3.5 mph - N/A   Scattered Clouds
11:45 AM 91.4 °F 96.8 °F 69.8 °F 49% 29.97 in 7.0 mi Calm Calm - N/A   Scattered Clouds
12:50 PM 93.2 °F 98.8 °F 69.8 °F 46% 29.94 in 7.0 mi Calm Calm - N/A   Scattered Clouds
1:55 PM 95.0 °F 99.5 °F 68.0 °F 41% 29.92 in 7.0 mi SW 6.9 mph - N/A   Scattered Clouds
2:50 PM 96.8 °F 99.0 °F 64.4 °F 34% 29.92 in 7.0 mi SSE 6.9 mph - N/A   Scattered Clouds
3:50 PM 96.8 °F 100.7 °F 66.2 °F 37% 29.90 in 7.0 mi South 5.8 mph - N/A   Scattered Clouds
4:50 PM 95.0 °F 101.3 °F 69.8 °F 44% 29.89 in 7.0 mi SSW 11.5 mph 16.1 mph N/A   Clear
5:52 PM 93.2 °F 98.8 °F 69.8 °F 46% 29.89 in 7.0 mi South 10.4 mph - N/A   Clear
6:50 PM 89.6 °F 94.7 °F 69.8 °F 52% 29.89 in 7.0 mi South 9.2 mph - N/A   Clear
7:54 PM 87.8 °F 93.8 °F 71.6 °F 58% 29.89 in 7.0 mi South 8.1 mph - N/A   Clear
8:50 PM 84.2 °F 89.6 °F 71.6 °F 66% 29.90 in 7.0 mi South 4.6 mph - N/A   Clear
9:50 PM 84.2 °F 90.9 °F 73.4 °F 70% 29.91 in 7.0 mi South 6.9 mph - N/A   Clear
11:15 PM 81.9 °F 87.5 °F 73.6 °F 76% 29.92 in 7.0 mi SSW 4.6 mph - N/A   Clear
11:35 PM 80.4 °F 85.0 °F 73.2 °F 79% 29.93 in 7.0 mi South 4.6 mph - N/A   Clear
11:55 PM 77.2 °F - 74.7 °F 92% 29.93 in 7.0 mi South 3.5 mph - N/A   Clear